Skip Page Navigation
NASA JPL Caltech
NASA Logo - Jet Propulsion Laboratory + View the NASA Portal
+ Center for Near-Earth Object Studies
JPL Home Earth Solar System Stars & Galaxies Technology
JPL Solar System Dynamics
BODIES ORBITS EPHEMERIDES TOOLS PHYSICAL DATA DISCOVERY FAQ SITE MAP
JPL Small-Body Database Browser
Search: [ help ]  
362445 (2010 RH98)
Classification: Main-belt Asteroid          SPK-ID: 2362445
Ephemeris | Orbit Diagram | Orbital Elements | Mission Design | Physical Parameters | Discovery Circumstances | Close-Approach Data ]

[ show orbit diagram ]
Orbital Elements at Epoch 2459200.5 (2020-Dec-17.0) TDB
Reference: JPL 15 (heliocentric ecliptic J2000)
 Element Value Uncertainty (1-sigma)   Units 
e .2425899268529846 8.5441e-08  
a 2.557276382690902 2.6302e-08 au
q 1.936906892071051 2.2831e-07 au
i 3.282015536057838 5.0368e-06 deg
node 268.8225443305898 0.00017169 deg
peri 19.29323070137555 0.00017314 deg
M 234.8962981317221 2.1817e-05 deg
tp 2459719.577959352113
(2022-May-20.07795935)
8.9351e-05 TDB
period 1493.705322673144
4.09
2.3045e-05
6.309e-08
d
yr
n .2410113926324785 3.7183e-09 deg/d
Q 3.177645873310753 3.2683e-08 au
  Orbit Determination Parameters
   # obs. used (total)      171  
   data-arc span      7173 days (19.64 yr)  
   first obs. used      2001-08-19  
   last obs. used      2021-04-09  
   planetary ephem.      DE441  
   SB-pert. ephem.      SB441-N16  
   condition code      0  
   norm. resid. RMS      .56758  
   source      ORB  
   producer      Otto Matic  
   solution date      2021-May-04 12:18:16  

Additional Information
 Earth MOID = .918973 au 
 Jupiter MOID = 2.00636 au 
 T_jup = 3.393 
[ show covariance matrix ]

Ephemeris | Orbit Diagram | Orbital Elements | Mission Design | Physical Parameters | Discovery Circumstances | Close-Approach Data ]

Physical Parameter Table
Parameter Symbol Value Units Sigma Reference Notes
absolute magnitude H 17.32   n/a MPCxxxxx  

362445 (2010 RH98)          Discovered 2006-Oct-02 by Spacewatch at Kitt Peak
Reference: Last Updated: 2013-04-29

[ show close-approach data ]
Ephemeris | Orbit Diagram | Orbital Elements | Mission Design | Physical Parameters | Discovery Circumstances | Close-Approach Data ]
ABOUT SSD CREDITS/AWARDS PRIVACY/COPYRIGHT GLOSSARY LINKS
FirstGov 2021-Jun-14 05:40 UT
(server date/time)  
NASA Home Page
Site Manager:   Ryan S. Park
Webmaster  Alan B. Chamberlin